Location: Saint Louis
(38.6272°N, 90.1978°W)
Time: 13:55:20
(UTC-05:00)

ISS - Pass Details

Date: 12 January 2013
Orbit: 400 x 410 km, 51.6° (Epoch: 28 September)

Event Time Altitude Azimuth Distance (km) Brightness Sun altitude
Exits shadow 04:01:02 -2° 52° (NE) 2,528 1.4 -37.9°
Enters shadow 04:59:06 -64° 268° (W) 12,048 4.1 -26.6°
Maximum altitude 05:35:07 12° 17° (NNE) 1,320 -0.7 -19.7°
